Simultaneous Nadir Overpasses (SNOs) Predictions

Prediction of SNOs between METOP-B and NOAA-19 Satellite Orbit:

Table of predicted SNOs for the next 14.0 days since TLE Epoch: 8/3/2018
Index Date (METOP-B) Time (METOP-B) Lat,Lon (METOP-B) SZA (METOP-B ) Date (NOAA-19) Time (NOAA-19) Lat,Lon (NOAA-19) SZA (NOAA-19 ) Distance(km) Time Diff (sec)
1 08/10/2018 22:06:34 78.58,-140.97 63.31 08/10/2018 22:05:28 78.57,-141.05 63.30 1.78 66
2 08/10/2018 22:57:16 -78.55, 26.19 116.72 08/10/2018 22:56:23 -78.58, 26.16 116.69 3.78 53
3 08/10/2018 23:47:56 78.56,-166.42 63.31 08/10/2018 23:47:29 78.57,-166.53 63.32 2.67 27
4 08/11/2018 00:38:37 -78.57, 0.96 116.67 08/11/2018 00:38:23 -78.54, 0.92 116.70 2.94 14
5 08/11/2018 01:29:18 78.54, 168.12 63.31 08/11/2018 01:29:29 78.53, 168.23 63.31 2.50 11
6 08/11/2018 02:19:59 -78.55, -24.49 116.67 08/11/2018 02:20:24 -78.54, -24.56 116.68 1.96 25
7 08/11/2018 03:10:40 78.52, 142.67 63.31 08/11/2018 03:11:30 78.53, 142.75 63.33 1.86 50
8 08/11/2018 04:01:21 -78.53, -49.94 116.67 08/11/2018 04:02:25 -78.54, -50.04 116.66 2.38 64




NCC Satellite Simultaneous Nadir Overpasses (SNOs) Prediction Service
